Location: Ciula Mare
(45.6000°N, 22.8167°E)
Time: 11:54:58
(UTC+00:00)

SKYMED 2 - Pass Details

Date: 03 February 2023
Orbit: 621 x 623 km, 97.9° (Epoch: 01 April)

Event Time Altitude Azimuth Distance (km) Brightness Sun altitude
Rises 16:15:10 0° 18° (NNE) 2,919 6.7 -7.0°
Reaches altitude 10° 16:17:26 10° 24° (NNE) 2,007 5.8 -7.4°
Maximum altitude 16:21:40 49° 99° (E) 814 3.8 -8.1°
Drops below altitude 10° 16:25:56 10° 175° (S) 2,021 6.3 -8.8°
Sets 16:28:06 0° 181° (S) 2,891 7.2 -9.2°
